This demonstration page uses our WeatherBlox Daily Observations layout. Learn more.

Left ArrowRight Arrow

44.8408, -93.29828

Hourly Observations for August 16, 2019

Temp ( °F °C ) Dew Point ( °F °C ) Humidity (%) Winds ( mph kmh ) Pressure ( in mb ) Visibility ( mi km ) Precip ( " mm )
12:53 am 00:53 Cloudy 68 20 62 16.7 81 81 S 6 9 29.82 1010 10 16 0.05 1.27
1:53 am 01:53 Cloudy with Light Rain 67 19.4 63 17.2 87 87 S 9 15 29.79 1009 8 13 0.00 0.00
2:16 am 02:16 Cloudy with Thunderstorms 67 19.4 63 17.2 87 87 W 10 17 29.79 1009 9 14 0.01 0.25
2:25 am 02:25 Cloudy with Strong Thunderstorms 66 18.9 63 17.2 90 90 NW 14 22 29.78 1009 2 3 0.17 4.32
2:31 am 02:31 Cloudy with Heavy Rain 65 18.3 63 17.2 93 93 NW 9 15 29.78 1009 1 2 0.34 8.64
2:35 am 02:35 Cloudy with Heavy Rain 65 18.3 63 17.2 93 93 NW 10 17 29.77 1008 3 5 0.41 10.41
2:49 am 02:49 Cloudy with Heavy Rain 64 18 63 17 94 94 WNW 7 11 29.76 1008 3 5 0.52 13.21
2:53 am 02:53 Cloudy with Heavy Rain 65 18.3 62 16.7 90 90 WNW 7 11 29.78 1008 1 1 0.63 16.00
2:59 am 02:59 Cloudy with Heavy Rain 64 17.8 62 16.7 93 93 W 6 9 29.78 1008 3 5 0.15 3.81
3:28 am 03:28 Cloudy 65 18.3 62 16.7 90 90 S 5 7 29.76 1008 10 16 0.20 5.08
3:50 am 03:50 Cloudy 66 19 63 17 88 88 SW 7 11 29.76 1008 10 16 0.20 5.08
3:53 am 03:53 Cloudy 66 18.9 63 17.2 90 90 SW 6 9 29.77 1008 10 16 0.20 5.08
4:49 am 04:49 Cloudy 66 19 63 17 88 88 WSW 8 13 29.76 1008 10 16 0.00 0.00
4:53 am 04:53 Cloudy 66 18.9 63 17.2 90 90 WSW 9 15 29.76 1008 10 16 0.00 0.00
5:17 am 05:17 Cloudy with Light Rain 65 18.3 62 16.7 90 90 SW 9 15 29.76 1008 10 16 0.00 0.00
5:53 am 05:53 Cloudy 64 17.8 61 16.1 90 90 SW 10 17 29.77 1008 10 16 0.00 0.00
6:19 am 06:19 Cloudy 64 17.8 62 16.7 93 93 WSW 12 19 29.77 1008 10 16 0.00 0.00
6:53 am 06:53 Cloudy 64 17.8 61 16.1 90 90 W 10 17 29.78 1009 10 16 0.00 0.00
7:36 am 07:36 Cloudy 64 17.8 61 16.1 90 90 W 10 17 29.80 1009 10 16 0.00 0.00
7:53 am 07:53 Cloudy 64 17.8 61 16.1 90 90 W 13 20 29.80 1009 10 16 0.00 0.00
8:00 am 08:00 Cloudy 64 17.8 61 16.1 90 90 W 9 15 29.80 1009 10 16 0.00 0.00
8:23 am 08:23 Mostly Cloudy 65 18.3 61 16.1 87 87 W 7 11 29.79 1009 10 16 0.00 0.00
8:43 am 08:43 Cloudy 66 18.9 61 16.1 84 84 W 8 13 29.80 1009 10 16 0.00 0.00
8:53 am 08:53 Cloudy 66 18.9 61 16.1 84 84 W 7 11 29.81 1009 10 16 0.00 0.00
9:53 am 09:53 Mostly Cloudy 67 19.4 60 15.6 79 79 W 12 19 29.82 1010 10 16 0.00 0.00
10:18 am 10:18 Cloudy 69 20.6 60 15.6 73 73 W 10 17 29.82 1010 10 16 0.00 0.00
10:53 am 10:53 Mostly Cloudy 70 21.1 61 16.1 73 73 WNW 10 17 29.84 1011 10 16 0.00 0.00
11:37 am 11:37 Partly Cloudy 73 22.8 62 16.7 69 69 NW 10 17 29.81 1009 10 16 0.00 0.00
11:53 am 11:53 Mostly Sunny 75 23.9 62 16.7 64 64 NW 10 17 29.82 1010 10 16 0.00 0.00
12:53 pm 12:53 Mostly Cloudy 76 24.4 61 16.1 60 60 W 13 20 29.82 1010 10 16 0.00 0.00
1:53 pm 13:53 Partly Cloudy 77 25 60 15.6 56 56 WNW 13 20 29.82 1010 10 16 0.00 0.00
2:53 pm 14:53 Partly Cloudy 78 25.6 59 15 52 52 WNW 10 17 29.81 1010 10 16 0.00 0.00
3:53 pm 15:53 Partly Cloudy 80 26.7 60 15.6 51 51 W 14 22 29.80 1009 10 16 0.00 0.00
4:53 pm 16:53 Partly Cloudy 79 26.1 59 15 50 50 W 9 15 29.80 1009 10 16 0.00 0.00
5:53 pm 17:53 Partly Cloudy 79 26.1 60 15.6 52 52 W 9 15 29.80 1009 10 16 0.00 0.00
6:53 pm 18:53 Partly Cloudy 79 26.1 60 15.6 52 52 WSW 10 17 29.80 1009 10 16 0.00 0.00
7:53 pm 19:53 Partly Cloudy 77 25 61 16.1 58 58 WSW 8 13 29.81 1009 10 16 0.00 0.00
8:53 pm 20:53 Partly Cloudy 76 24.4 61 16.1 60 60 WSW 8 13 29.82 1010 10 16 0.00 0.00
9:53 pm 21:53 Partly Cloudy 74 23.3 61 16.1 64 64 SW 7 11 29.83 1010 10 16 0.00 0.00
10:53 pm 22:53 Mostly Clear 73 22.8 61 16.1 66 66 SW 8 13 29.83 1010 10 16 0.00 0.00
11:53 pm 23:53 Mostly Clear 71 21.7 62 16.7 73 73 WSW 7 11 29.84 1011 10 16 0.00 0.00

Powered by AerisWeather